Volver al catálogo

O3B FM4

ActivoComunicacionesMEO
NORAD 39189·PAYLOAD·🇱🇺 Luxembourg

Lanzado Jun 25, 2013 desde Guiana Space Centre

Loading…

Próximos Pases (próximas 24 horas)

TLE

ActualizadoSource: CelesTrak SupGP

Época: Sep 15, 2026, 00:00 UTC

1 39189C 13031B   26258.00000000  .00000000  00000+0  00000+0 0  2587
2 39189   0.0404 356.0707 0004441 149.7457  15.8503  5.00115808    19

Sigue O3B FM4 en tiempo real con AllMySat

Download on the App Store